,,PA_Meas_PMT16A,,PR_Meas_QMR101_102,,RH_Meas_QMH101,,SR_Meas_QMS101,,TA_Meas_QMH101,,GenWind,,GenWind,
time,status,PA,status,PR,status,RH,status,SR,status,TA,status,DirAvg,status,SpdAvg,
2012-03-03, 00:00:04,VALID,916.25,VALID,0,VALID,92.9599,VALID,0,VALID,19.2528,VALID,129,VALID,0.709766,
2012-03-03, 00:01:04,VALID,916.18,VALID,0,VALID,92.9294,VALID,0,VALID,19.2334,VALID,128,VALID,0.157813,
2012-03-03, 00:02:04,VALID,916.203,VALID,0,VALID,93.1276,VALID,0,VALID,19.2962,VALID,129,VALID,0,
2012-03-03, 00:03:04,VALID,916.207,VALID,0,VALID,93.2649,VALID,0,VALID,19.2319,VALID,129,VALID,0.286719,
2012-03-03, 00:04:04,VALID,916.225,VALID,0,VALID,93.3792,VALID,0,VALID,19.2334,VALID,129,VALID,0.218359,
2012-03-03, 00:05:04,VALID,916.194,VALID,0,VALID,93.4097,VALID,0,VALID,19.2348,VALID,129,VALID,0.326172,
2012-03-03, 00:06:04,VALID,916.228,VALID,0,VALID,93.3868,VALID,0,VALID,19.1929,VALID,129,VALID,0.7875,
2012-03-03, 00:07:04,VALID,916.208,VALID,0,VALID,93.2954,VALID,0,VALID,19.2363,VALID,129,VALID,0.650391,
2012-03-03, 00:08:04,VALID,916.211,VALID,0,VALID,93.1734,VALID,0,VALID,19.2363,VALID,129,VALID,0.736328,
2012-03-03, 00:09:04,VALID,916.187,VALID,0,VALID,93.242,VALID,0,VALID,19.2363,VALID,129,VALID,0.676953,
2012-03-03, 00:10:04,VALID,916.205,VALID,0,VALID,93.364,VALID,0,VALID,19.1944,VALID,128,VALID,0.84375,
2012-03-03, 00:11:04,VALID,916.183,VALID,0,VALID,93.364,VALID,0,VALID,19.1778,VALID,128,VALID,0.855469,
2012-03-03, 00:12:04,VALID,916.209,VALID,0,VALID,93.5698,VALID,0,VALID,19.0759,VALID,128,VALID,0.857031,
2012-03-03, 00:13:04,VALID,916.196,VALID,0,VALID,93.7375,VALID,0,VALID,19.0983,VALID,128,VALID,0.788281,
2012-03-03, 00:14:04,VALID,916.228,VALID,0,VALID,93.8138,VALID,0,VALID,19.0369,VALID,128,VALID,0.894922,
2012-03-03, 00:15:04,VALID,916.186,VALID,0,VALID,93.8443,VALID,0,VALID,19.0189,VALID,128,VALID,0.757031,
2012-03-03, 00:16:04,VALID,916.208,VALID,0,VALID,94.0425,VALID,0,VALID,19.0189,VALID,128,VALID,0.670703,
2012-03-03, 00:17:04,VALID,916.183,VALID,0,VALID,94.1187,VALID,0,VALID,19.0175,VALID,128,VALID,0.440234,
2012-03-03, 00:18:04,VALID,916.183,VALID,0,VALID,93.9662,VALID,0,VALID,18.9994,VALID,128,VALID,0.24375,
2012-03-03, 00:19:04,VALID,916.178,VALID,0,VALID,93.9967,VALID,0,VALID,18.9994,VALID,128,VALID,0.340625,
2012-03-03, 00:20:04,VALID,916.162,VALID,0,VALID,94.2178,VALID,0,VALID,18.9799,VALID,128,VALID,0.197656,
2012-03-03, 00:21:04,VALID,916.152,VALID,0,VALID,94.0577,VALID,0,VALID,18.9814,VALID,128,VALID,0.317578,
2012-03-03, 00:22:04,VALID,916.157,VALID,0,VALID,94.1034,VALID,0,VALID,18.9814,VALID,128,VALID,0.323828,
2012-03-03, 00:23:04,VALID,916.148,VALID,0,VALID,94.2483,VALID,0,VALID,18.9604,VALID,128,VALID,0.573828,
2012-03-03, 00:24:04,VALID,916.142,VALID,0,VALID,94.2712,VALID,0,VALID,18.9409,VALID,128,VALID,0.386719,
2012-03-03, 00:25:04,VALID,916.104,VALID,0,VALID,94.4846,VALID,0,VALID,18.9604,VALID,128,VALID,0,
2012-03-03, 00:26:04,VALID,916.096,VALID,0,VALID,94.6218,VALID,0,VALID,18.9575,VALID,128,VALID,0,
2012-03-03, 00:27:04,VALID,916.103,VALID,0,VALID,94.4236,VALID,0,VALID,18.9828,VALID,128,VALID,0.285156,
2012-03-03, 00:28:04,VALID,916.092,VALID,0,VALID,94.4999,VALID,0,VALID,18.9604,VALID,128,VALID,0,
2012-03-03, 00:29:04,VALID,916.086,VALID,0,VALID,94.416,VALID,0,VALID,18.9604,VALID,128,VALID,0.387891,
2012-03-03, 00:30:04,VALID,916.063,VALID,0,VALID,94.4008,VALID,0,VALID,19.0008,VALID,128,VALID,0.588672,
2012-03-03, 00:31:04,VALID,916.083,VALID,0,VALID,94.3931,VALID,0,VALID,18.9604,VALID,128,VALID,0.648828,
2012-03-03, 00:32:04,VALID,916.053,VALID,0,VALID,94.4313,VALID,0.107441,VALID,18.8781,VALID,128,VALID,0.687891,
2012-03-03, 00:33:04,VALID,916.055,VALID,0,VALID,94.4541,VALID,0,VALID,18.8406,VALID,128,VALID,0.429688,
2012-03-03, 00:34:04,VALID,916.042,VALID,0,VALID,94.66,VALID,0,VALID,18.9034,VALID,128,VALID,0.348828,
2012-03-03, 00:35:04,VALID,916.055,VALID,0,VALID,94.599,VALID,0.107441,VALID,18.9438,VALID,128,VALID,0.251172,
2012-03-03, 00:36:04,VALID,916.022,VALID,0,VALID,94.5837,VALID,0,VALID,18.9871,VALID,128,VALID,0.0121094,
2012-03-03, 00:37:04,VALID,916.016,VALID,0,VALID,94.6066,VALID,0,VALID,18.9662,VALID,128,VALID,0.242578,
2012-03-03, 00:38:04,VALID,916.013,VALID,0.2,VALID,94.5609,VALID,0,VALID,18.9633,VALID,128,VALID,0.229687,
2012-03-03, 00:39:04,VALID,915.998,VALID,0,VALID,94.5837,VALID,0,VALID,18.9005,VALID,128,VALID,0.417578,
2012-03-03, 00:40:04,VALID,916.036,VALID,0,VALID,94.2864,VALID,0,VALID,18.9409,VALID,128,VALID,0.219531,
2012-03-03, 00:41:04,VALID,916,VALID,0,VALID,93.9205,VALID,0.107441,VALID,18.881,VALID,128,VALID,0,
2012-03-03, 00:42:04,VALID,915.996,VALID,0,VALID,93.9662,VALID,0,VALID,18.9214,VALID,128,VALID,0,
2012-03-03, 00:43:04,VALID,915.982,VALID,0,VALID,94.0425,VALID,0,VALID,18.9604,VALID,128,VALID,0.0945313,
2012-03-03, 00:44:04,VALID,916.003,VALID,0,VALID,94.0806,VALID,0,VALID,18.9604,VALID,128,VALID,0.294922,
2012-03-03, 00:45:04,VALID,915.985,VALID,0,VALID,93.7528,VALID,0,VALID,18.9019,VALID,128,VALID,0.292578,
2012-03-03, 00:46:04,VALID,915.986,VALID,0,VALID,93.4859,VALID,0,VALID,18.8629,VALID,128,VALID,0.234375,
2012-03-03, 00:47:04,VALID,915.974,VALID,0,VALID,93.3868,VALID,0,VALID,18.8839,VALID,128,VALID,0.221094,
2012-03-03, 00:48:04,VALID,915.971,VALID,0,VALID,93.5546,VALID,0,VALID,18.9019,VALID,128,VALID,0.455859,
2012-03-03, 00:49:04,VALID,915.936,VALID,0,VALID,93.8061,VALID,0,VALID,18.8211,VALID,128,VALID,0.311719,
2012-03-03, 00:50:04,VALID,915.905,VALID,0,VALID,93.9281,VALID,0,VALID,18.8644,VALID,128,VALID,0.243359,
2012-03-03, 00:51:04,VALID,915.943,VALID,0,VALID,94.2102,VALID,0,VALID,18.8225,VALID,128,VALID,0.300391,
2012-03-03, 00:52:04,VALID,915.916,VALID,0,VALID,94.2864,VALID,0,VALID,18.824,VALID,128,VALID,0.285547,
2012-03-03, 00:53:04,VALID,915.908,VALID,0.2,VALID,94.5304,VALID,0,VALID,18.8449,VALID,128,VALID,0,
2012-03-03, 00:54:04,VALID,915.88,VALID,0,VALID,94.7819,VALID,0,VALID,18.8839,VALID,128,VALID,0,
2012-03-03, 00:55:04,VALID,915.845,VALID,0,VALID,94.7362,VALID,0,VALID,18.8839,VALID,128,VALID,0,
2012-03-03, 00:56:04,VALID,915.849,VALID,0,VALID,94.9725,VALID,0,VALID,18.881,VALID,128,VALID,0,
2012-03-03, 00:57:04,VALID,915.81,VALID,0,VALID,95.0869,VALID,0,VALID,19.0247,VALID,128,VALID,0,
2012-03-03, 00:58:04,VALID,915.804,VALID,0,VALID,95.0716,VALID,0,VALID,18.881,VALID,128,VALID,0,
2012-03-03, 00:59:04,VALID,915.814,VALID,0,VALID,95.0869,VALID,0,VALID,18.8796,VALID,128,VALID,0,
2012-03-03, 01:00:04,VALID,915.789,VALID,0,VALID,94.9573,VALID,0,VALID,18.9214,VALID,128,VALID,0,
2012-03-03, 01:01:04,VALID,915.792,VALID,0,VALID,95.1097,VALID,0,VALID,18.881,VALID,128,VALID,0,
2012-03-03, 01:02:04,VALID,915.786,VALID,0,VALID,94.9496,VALID,0,VALID,18.9019,VALID,128,VALID,0.201172,
2012-03-03, 01:03:04,VALID,915.757,VALID,0,VALID,94.7896,VALID,0,VALID,18.8839,VALID,128,VALID,0.386719,
2012-03-03, 01:04:04,VALID,915.791,VALID,0,VALID,94.7438,VALID,0,VALID,18.824,VALID,128,VALID,0.439063,
2012-03-03, 01:05:04,VALID,915.755,VALID,0,VALID,94.7743,VALID,0,VALID,18.785,VALID,128,VALID,0.235547,
2012-03-03, 01:06:04,VALID,915.749,VALID,0,VALID,94.9725,VALID,0,VALID,18.8073,VALID,128,VALID,0.295703,
2012-03-03, 01:07:04,VALID,915.734,VALID,0,VALID,94.9801,VALID,0,VALID,18.7864,VALID,128,VALID,0.737109,
2012-03-03, 01:08:04,VALID,915.696,VALID,0,VALID,95.0945,VALID,0,VALID,18.7669,VALID,128,VALID,0.937891,
2012-03-03, 01:09:04,VALID,915.724,VALID,0,VALID,95.2698,VALID,0,VALID,18.7265,VALID,128,VALID,0.571094,
2012-03-03, 01:10:04,VALID,915.699,VALID,0,VALID,95.4375,VALID,0,VALID,18.6861,VALID,128,VALID,0.386328,
2012-03-03, 01:11:04,VALID,915.708,VALID,0.2,VALID,95.5443,VALID,0,VALID,18.6471,VALID,128,VALID,0.422266,
2012-03-03, 01:12:04,VALID,915.671,VALID,0,VALID,95.651,VALID,0,VALID,18.6276,VALID,128,VALID,0.562109,
2012-03-03, 01:13:04,VALID,915.679,VALID,0,VALID,95.7577,VALID,0,VALID,18.7113,VALID,128,VALID,0.560547,
2012-03-03, 01:14:04,VALID,915.682,VALID,0,VALID,95.8873,VALID,0,VALID,18.7098,VALID,128,VALID,0.644922,
2012-03-03, 01:15:04,VALID,915.663,VALID,0,VALID,96.0169,VALID,0,VALID,18.6666,VALID,129,VALID,0.266016,
2012-03-03, 01:16:04,VALID,915.66,VALID,0,VALID,96.1541,VALID,0,VALID,18.6875,VALID,128,VALID,0.00742187,
2012-03-03, 01:17:04,VALID,915.664,VALID,0,VALID,96.1999,VALID,0,VALID,18.7084,VALID,128,VALID,0.578125,
2012-03-03, 01:18:04,VALID,915.644,VALID,0,VALID,96.2456,VALID,0,VALID,18.7113,VALID,128,VALID,0.749609,
2012-03-03, 01:19:04,VALID,915.62,VALID,0,VALID,96.3371,VALID,0,VALID,18.629,VALID,128,VALID,0.6375,
2012-03-03, 01:20:04,VALID,915.6,VALID,0,VALID,96.3752,VALID,0,VALID,18.5858,VALID,128,VALID,0.398828,
2012-03-03, 01:21:04,VALID,915.605,VALID,0,VALID,96.4362,VALID,0,VALID,18.6499,VALID,128,VALID,0.522266,
2012-03-03, 01:22:04,VALID,915.613,VALID,0,VALID,96.4972,VALID,0,VALID,18.629,VALID,128,VALID,0.396094,
2012-03-03, 01:23:04,VALID,915.607,VALID,0,VALID,96.5429,VALID,0,VALID,18.6485,VALID,128,VALID,0.688672,
2012-03-03, 01:24:04,VALID,915.593,VALID,0,VALID,96.6115,VALID,0,VALID,18.6903,VALID,128,VALID,0.413672,
2012-03-03, 01:25:04,VALID,915.549,VALID,0,VALID,96.6573,VALID,0,VALID,18.6903,VALID,128,VALID,0.446094,
2012-03-03, 01:26:04,VALID,915.573,VALID,0,VALID,96.6497,VALID,0,VALID,18.6081,VALID,128,VALID,0.279297,
2012-03-03, 01:27:04,VALID,915.564,VALID,0,VALID,96.7107,VALID,0,VALID,18.7127,VALID,128,VALID,0,
2012-03-03, 01:28:04,VALID,915.555,VALID,0,VALID,96.7411,VALID,0,VALID,18.6262,VALID,128,VALID,0.185547,
2012-03-03, 01:29:04,VALID,915.544,VALID,0,VALID,96.764,VALID,0,VALID,18.5886,VALID,128,VALID,0,
2012-03-03, 01:30:04,VALID,915.522,VALID,0,VALID,96.8021,VALID,0,VALID,18.6499,VALID,128,VALID,0.307031,
2012-03-03, 01:31:04,VALID,915.557,VALID,0,VALID,96.8174,VALID,0,VALID,18.6081,VALID,128,VALID,0.0425781,
2012-03-03, 01:32:04,VALID,915.522,VALID,0,VALID,96.8631,VALID,0,VALID,18.6918,VALID,128,VALID,0,
2012-03-03, 01:33:04,VALID,915.531,VALID,0,VALID,96.886,VALID,0,VALID,18.6485,VALID,128,VALID,0,
2012-03-03, 01:34:04,VALID,915.485,VALID,0,VALID,96.9165,VALID,0,VALID,18.7308,VALID,128,VALID,0,
2012-03-03, 01:35:04,VALID,915.458,VALID,0,VALID,96.8326,VALID,0,VALID,18.6889,VALID,128,VALID,1.20547,
2012-03-03, 01:36:04,VALID,915.455,VALID,0,VALID,96.8403,VALID,0,VALID,18.5886,VALID,128,VALID,0.471484,
2012-03-03, 01:37:04,VALID,915.46,VALID,0,VALID,96.8784,VALID,0,VALID,18.6694,VALID,128,VALID,0.416016,
2012-03-03, 01:38:04,VALID,915.447,VALID,0,VALID,96.8784,VALID,0,VALID,18.6528,VALID,128,VALID,0.194141,
2012-03-03, 01:39:04,VALID,915.416,VALID,0,VALID,96.9012,VALID,0,VALID,18.6528,VALID,76,VALID,1.14766,
2012-03-03, 01:40:04,VALID,915.392,VALID,0,VALID,96.9012,VALID,0,VALID,18.5886,VALID,76,VALID,1.03203,
2012-03-03, 01:41:04,VALID,915.396,VALID,0,VALID,96.7488,VALID,0,VALID,18.5929,VALID,76,VALID,0.644531,
2012-03-03, 01:42:04,VALID,915.404,VALID,0,VALID,96.7945,VALID,0,VALID,18.657,VALID,76,VALID,0.507422,
2012-03-03, 01:43:04,VALID,915.39,VALID,0,VALID,96.8707,VALID,0,VALID,18.5914,VALID,76,VALID,0.266797,
2012-03-03, 01:44:04,VALID,915.387,VALID,0,VALID,96.8936,VALID,0,VALID,18.6081,VALID,76,VALID,0.505859,
2012-03-03, 01:45:04,VALID,915.413,VALID,0,VALID,96.8936,VALID,0,VALID,18.6694,VALID,76,VALID,0.505078,
2012-03-03, 01:46:04,VALID,915.379,VALID,0,VALID,96.7793,VALID,0,VALID,18.5482,VALID,76,VALID,0.663672,
2012-03-03, 01:47:04,VALID,915.369,VALID,0,VALID,96.7564,VALID,0,VALID,18.6138,VALID,76,VALID,0.504687,
2012-03-03, 01:48:04,VALID,915.35,VALID,0,VALID,96.7107,VALID,0,VALID,18.5316,VALID,76,VALID,0.607422,
2012-03-03, 01:49:04,VALID,915.386,VALID,0,VALID,96.7564,VALID,0,VALID,18.5316,VALID,76,VALID,0.449219,
2012-03-03, 01:50:04,VALID,915.357,VALID,0,VALID,96.7564,VALID,0,VALID,18.5107,VALID,76,VALID,0.367578,
2012-03-03, 01:51:04,VALID,915.37,VALID,0,VALID,96.6802,VALID,0,VALID,18.5539,VALID,76,VALID,0.362109,
2012-03-03, 01:52:04,VALID,915.338,VALID,0,VALID,96.703,VALID,0,VALID,18.5121,VALID,76,VALID,0.0726563,
2012-03-03, 01:53:04,VALID,915.349,VALID,0,VALID,96.7488,VALID,0,VALID,18.5344,VALID,77,VALID,0.244922,
2012-03-03, 01:54:04,VALID,915.343,VALID,0,VALID,96.7488,VALID,0,VALID,18.533,VALID,76,VALID,0.00117188,
2012-03-03, 01:55:04,VALID,915.355,VALID,0,VALID,96.7107,VALID,0,VALID,18.4731,VALID,76,VALID,0.589063,
2012-03-03, 01:56:04,VALID,915.328,VALID,0,VALID,96.7564,VALID,0,VALID,18.5539,VALID,76,VALID,0.0433594,
2012-03-03, 01:57:04,VALID,915.328,VALID,0,VALID,96.7259,VALID,0,VALID,18.4508,VALID,76,VALID,0.169922,
2012-03-03, 01:58:04,VALID,915.337,VALID,0,VALID,96.7793,VALID,0,VALID,18.5957,VALID,76,VALID,0,
2012-03-03, 01:59:04,VALID,915.317,VALID,0,VALID,96.8174,VALID,0,VALID,18.5344,VALID,77,VALID,0.1125,
2012-03-03, 02:00:04,VALID,915.289,VALID,0,VALID,96.8174,VALID,0,VALID,18.5358,VALID,76,VALID,0,
2012-03-03, 02:01:04,VALID,915.284,VALID,0,VALID,96.825,VALID,0,VALID,18.4731,VALID,76,VALID,0.226563,
2012-03-03, 02:02:04,VALID,915.31,VALID,0,VALID,96.8021,VALID,0,VALID,18.4355,VALID,77,VALID,0.396484,
2012-03-03, 02:03:04,VALID,915.274,VALID,0,VALID,96.7564,VALID,0,VALID,18.4369,VALID,76,VALID,0.444922,
2012-03-03, 02:04:04,VALID,915.256,VALID,0,VALID,96.7488,VALID,0,VALID,18.416,VALID,76,VALID,0.305859,
2012-03-03, 02:05:04,VALID,915.233,VALID,0,VALID,96.7564,VALID,0,VALID,18.4578,VALID,76,VALID,0.420312,
2012-03-03, 02:06:04,VALID,915.213,VALID,0,VALID,96.8479,VALID,0,VALID,18.3533,VALID,77,VALID,0.666016,
2012-03-03, 02:07:04,VALID,915.193,VALID,0,VALID,96.8631,VALID,0,VALID,18.3951,VALID,76,VALID,0.886719,
2012-03-03, 02:08:04,VALID,915.191,VALID,0,VALID,96.8021,VALID,0,VALID,18.4592,VALID,76,VALID,0.95625,
2012-03-03, 02:09:04,VALID,915.179,VALID,0,VALID,96.7411,VALID,0,VALID,18.3589,VALID,76,VALID,0.546094,
2012-03-03, 02:10:04,VALID,915.176,VALID,0,VALID,96.6192,VALID,0,VALID,18.2782,VALID,76,VALID,0.687891,
2012-03-03, 02:11:04,VALID,915.125,VALID,0,VALID,96.4972,VALID,0,VALID,18.1195,VALID,76,VALID,0.50625,
2012-03-03, 02:12:04,VALID,915.122,VALID,0,VALID,96.177,VALID,0,VALID,18.125,VALID,76,VALID,0.942578,
2012-03-03, 02:13:04,VALID,915.142,VALID,0,VALID,95.8416,VALID,0,VALID,18.0651,VALID,76,VALID,1.21875,
2012-03-03, 02:14:04,VALID,915.139,VALID,0,VALID,95.4909,VALID,0,VALID,18.0429,VALID,76,VALID,1.08516,
2012-03-03, 02:15:04,VALID,915.136,VALID,0,VALID,95.0488,VALID,0,VALID,18.0221,VALID,76,VALID,0.664453,
2012-03-03, 02:16:04,VALID,915.115,VALID,0,VALID,94.2864,VALID,0,VALID,18.0665,VALID,350,VALID,1.19102,
2012-03-03, 02:17:04,VALID,915.107,VALID,0,VALID,93.4936,VALID,0,VALID,18.0443,VALID,353,VALID,1.00312,
2012-03-03, 02:18:04,VALID,915.121,VALID,0,VALID,92.9599,VALID,0,VALID,18.0053,VALID,353,VALID,0.840234,
2012-03-03, 02:19:04,VALID,915.075,VALID,0,VALID,92.5406,VALID,0,VALID,18.047,VALID,353,VALID,0.800391,
2012-03-03, 02:20:04,VALID,915.07,VALID,0,VALID,92.0299,VALID,0,VALID,17.9663,VALID,353,VALID,0.925391,
2012-03-03, 02:21:04,VALID,915.046,VALID,0,VALID,91.9536,VALID,0,VALID,17.926,VALID,353,VALID,1.02539,
2012-03-03, 02:22:04,VALID,915.033,VALID,0,VALID,91.542,VALID,0,VALID,17.9482,VALID,353,VALID,1.09531,
2012-03-03, 02:23:04,VALID,915.027,VALID,0,VALID,90.7568,VALID,0,VALID,17.9287,VALID,343,VALID,1.22031,
2012-03-03, 02:24:04,VALID,915.005,VALID,0,VALID,91.0541,VALID,0,VALID,17.9691,VALID,16,VALID,1.54102,
2012-03-03, 02:25:04,VALID,915.036,VALID,0,VALID,90.955,VALID,0,VALID,17.887,VALID,1,VALID,1.16836,
2012-03-03, 02:26:04,VALID,914.999,VALID,0,VALID,90.9473,VALID,0,VALID,17.9079,VALID,24,VALID,1.35703,
2012-03-03, 02:27:04,VALID,914.96,VALID,0,VALID,91.1608,VALID,0,VALID,17.9301,VALID,18,VALID,0.830078,
2012-03-03, 02:28:04,VALID,914.977,VALID,0,VALID,91.298,VALID,0,VALID,17.8702,VALID,18,VALID,0.553125,
2012-03-03, 02:29:04,VALID,914.982,VALID,0,VALID,90.6882,VALID,0,VALID,17.8508,VALID,17,VALID,0.647656,
2012-03-03, 02:30:04,VALID,914.992,VALID,0,VALID,90.5509,VALID,0,VALID,17.8911,VALID,335,VALID,0.655078,
2012-03-03, 02:31:04,VALID,914.959,VALID,0,VALID,91.0617,VALID,0,VALID,17.848,VALID,335,VALID,0.471875,
2012-03-03, 02:32:04,VALID,914.958,VALID,0,VALID,91.9765,VALID,0,VALID,17.9496,VALID,335,VALID,0,
2012-03-03, 02:33:04,VALID,914.935,VALID,0,VALID,92.2967,VALID,0,VALID,17.887,VALID,335,VALID,0.444141,
2012-03-03, 02:34:04,VALID,914.89,VALID,0,VALID,91.7631,VALID,0,VALID,17.9287,VALID,340,VALID,0.856641,
2012-03-03, 02:35:04,VALID,914.881,VALID,0,VALID,91.7783,VALID,0,VALID,17.9482,VALID,354,VALID,0.835156,
2012-03-03, 02:36:04,VALID,914.902,VALID,0,VALID,91.5344,VALID,0,VALID,17.9092,VALID,354,VALID,0.509766,
2012-03-03, 02:37:04,VALID,914.871,VALID,0,VALID,91.7478,VALID,0,VALID,17.9287,VALID,354,VALID,0.765234,
2012-03-03, 02:38:04,VALID,914.884,VALID,0,VALID,90.1774,VALID,0,VALID,17.8689,VALID,345,VALID,0.915625,
2012-03-03, 02:39:04,VALID,914.878,VALID,0,VALID,90.4442,VALID,0,VALID,17.8884,VALID,338,VALID,0.143359,
2012-03-03, 02:40:04,VALID,914.864,VALID,0,VALID,90.3146,VALID,0,VALID,17.9886,VALID,338,VALID,0.300781,
2012-03-03, 02:41:04,VALID,914.876,VALID,0,VALID,90.1012,VALID,0,VALID,17.9677,VALID,346,VALID,0.86875,
2012-03-03, 02:42:04,VALID,914.892,VALID,0,VALID,89.659,VALID,0,VALID,18.0262,VALID,351,VALID,0.875781,
2012-03-03, 02:43:04,VALID,914.895,VALID,0,VALID,89.598,VALID,0,VALID,18.0457,VALID,346,VALID,0.364062,
2012-03-03, 02:44:04,VALID,914.86,VALID,0,VALID,90.2994,VALID,0,VALID,18.0457,VALID,346,VALID,0.622266,
2012-03-03, 02:45:04,VALID,914.856,VALID,0,VALID,90.2536,VALID,0,VALID,18.0457,VALID,345,VALID,0.43125,
2012-03-03, 02:46:04,VALID,914.831,VALID,0,VALID,90.9931,VALID,0,VALID,18.0262,VALID,346,VALID,0.223438,
2012-03-03, 02:47:04,VALID,914.862,VALID,0,VALID,90.5738,VALID,0,VALID,17.9858,VALID,346,VALID,0.447656,
2012-03-03, 02:48:04,VALID,914.829,VALID,0,VALID,89.8572,VALID,0,VALID,17.9858,VALID,345,VALID,0.45625,
2012-03-03, 02:49:04,VALID,914.873,VALID,0,VALID,91.1608,VALID,0,VALID,18.0651,VALID,345,VALID,0.461328,
2012-03-03, 02:50:04,VALID,914.847,VALID,0,VALID,92.5178,VALID,0,VALID,18.1028,VALID,346,VALID,0.676562,
2012-03-03, 02:51:04,VALID,914.851,VALID,0,VALID,92.6855,VALID,0,VALID,18.0833,VALID,346,VALID,0.307422,
2012-03-03, 02:52:04,VALID,914.849,VALID,0,VALID,93.2039,VALID,0,VALID,18.1028,VALID,346,VALID,0.436719,
2012-03-03, 02:53:04,VALID,914.834,VALID,0,VALID,92.777,VALID,0,VALID,18.0429,VALID,345,VALID,0.482031,
2012-03-03, 02:54:04,VALID,914.8,VALID,0,VALID,92.6702,VALID,0,VALID,18.0665,VALID,346,VALID,0.583594,
2012-03-03, 02:55:04,VALID,914.844,VALID,0,VALID,91.8698,VALID,0,VALID,18.0067,VALID,346,VALID,0.568359,
2012-03-03, 02:56:04,VALID,914.79,VALID,0,VALID,91.7935,VALID,0,VALID,18.0067,VALID,346,VALID,0.0953125,
2012-03-03, 02:57:04,VALID,914.804,VALID,0,VALID,91.2904,VALID,0,VALID,18.0067,VALID,346,VALID,0.332812,
2012-03-03, 02:58:04,VALID,914.798,VALID,0,VALID,91.42,VALID,0,VALID,18.0457,VALID,346,VALID,0.870703,
2012-03-03, 02:59:04,VALID,914.732,VALID,0,VALID,87.3796,VALID,0,VALID,18.0275,VALID,353,VALID,2.22852,
2012-03-03, 03:00:04,VALID,914.749,VALID,0,VALID,87.311,VALID,0,VALID,18.2044,VALID,356,VALID,1.02188,
2012-03-03, 03:01:04,VALID,914.729,VALID,0,VALID,87.2195,VALID,0,VALID,18.2002,VALID,356,VALID,0.826563,
2012-03-03, 03:02:04,VALID,914.727,VALID,0,VALID,88.3478,VALID,0,VALID,18.2796,VALID,356,VALID,0.778125,
2012-03-03, 03:03:04,VALID,914.715,VALID,0,VALID,89.072,VALID,0,VALID,18.2796,VALID,357,VALID,0.848828,
2012-03-03, 03:04:04,VALID,914.744,VALID,0,VALID,90.307,VALID,0,VALID,18.3199,VALID,356,VALID,0.832812,
2012-03-03, 03:05:04,VALID,914.714,VALID,0,VALID,90.6348,VALID,0,VALID,18.2796,VALID,356,VALID,0.553906,
2012-03-03, 03:06:04,VALID,914.738,VALID,0,VALID,90.8635,VALID,0,VALID,18.2406,VALID,356,VALID,0.546094,
2012-03-03, 03:07:04,VALID,914.706,VALID,0,VALID,92.0832,VALID,0,VALID,18.2406,VALID,356,VALID,0.523047,
2012-03-03, 03:08:04,VALID,914.703,VALID,0,VALID,92.7922,VALID,0,VALID,18.2016,VALID,356,VALID,0.287891,
2012-03-03, 03:09:04,VALID,914.698,VALID,0,VALID,93.2877,VALID,0,VALID,18.1626,VALID,356,VALID,0.540625,
2012-03-03, 03:10:04,VALID,914.715,VALID,0,VALID,93.0819,VALID,0,VALID,18.0833,VALID,356,VALID,0.380469,
2012-03-03, 03:11:04,VALID,914.704,VALID,0,VALID,93.8138,VALID,0,VALID,18.0638,VALID,356,VALID,0.317969,
2012-03-03, 03:12:04,VALID,914.699,VALID,0,VALID,94.233,VALID,0,VALID,18.0457,VALID,356,VALID,0,
2012-03-03, 03:13:04,VALID,914.674,VALID,0,VALID,94.355,VALID,0,VALID,18.0665,VALID,356,VALID,0.0195313,
2012-03-03, 03:14:04,VALID,914.658,VALID,0,VALID,94.6218,VALID,0,VALID,18.047,VALID,356,VALID,0.00078125,
2012-03-03, 03:15:04,VALID,914.662,VALID,0,VALID,94.9649,VALID,0,VALID,18.0053,VALID,356,VALID,0.0121094,
2012-03-03, 03:16:04,VALID,914.65,VALID,0,VALID,95.186,VALID,0,VALID,18.047,VALID,356,VALID,0,
2012-03-03, 03:17:04,VALID,914.637,VALID,0,VALID,95.3003,VALID,0,VALID,18.0067,VALID,356,VALID,0,
2012-03-03, 03:18:04,VALID,914.634,VALID,0,VALID,94.2102,VALID,0,VALID,17.9106,VALID,356,VALID,0.643359,
2012-03-03, 03:19:04,VALID,914.636,VALID,0,VALID,93.89,VALID,0,VALID,17.9482,VALID,356,VALID,0.491797,
2012-03-03, 03:20:04,VALID,914.627,VALID,0,VALID,92.8913,VALID,0,VALID,17.9886,VALID,356,VALID,0.590234,
2012-03-03, 03:21:04,VALID,914.629,VALID,0,VALID,92.8151,VALID,0,VALID,18.0443,VALID,356,VALID,0.671875,
2012-03-03, 03:22:04,VALID,914.608,VALID,0,VALID,90.1088,VALID,0,VALID,18.0874,VALID,356,VALID,0.905859,
2012-03-03, 03:23:04,VALID,914.602,VALID,0,VALID,89.4303,VALID,0,VALID,18.0833,VALID,356,VALID,0.735937,
2012-03-03, 03:24:04,VALID,914.605,VALID,0,VALID,88.4392,VALID,0,VALID,18.1445,VALID,356,VALID,0.724219,
2012-03-03, 03:25:04,VALID,914.572,VALID,0,VALID,87.4787,VALID,0,VALID,18.1654,VALID,356,VALID,0.734766,
2012-03-03, 03:26:04,VALID,914.565,VALID,0,VALID,87.7226,VALID,0,VALID,18.2057,VALID,356,VALID,0.430469,
2012-03-03, 03:27:04,VALID,914.548,VALID,0,VALID,86.7011,VALID,0,VALID,18.1236,VALID,354,VALID,0.8125,
2012-03-03, 03:28:04,VALID,914.528,VALID,0,VALID,85.9998,VALID,0,VALID,18.2252,VALID,351,VALID,0.692578,
2012-03-03, 03:29:04,VALID,914.538,VALID,0,VALID,85.9311,VALID,0,VALID,18.2615,VALID,351,VALID,0.579687,
2012-03-03, 03:30:04,VALID,914.474,VALID,0,VALID,85.8473,VALID,0,VALID,18.2809,VALID,351,VALID,0.878516,
2012-03-03, 03:31:04,VALID,914.479,VALID,0,VALID,84.9553,VALID,0,VALID,18.2601,VALID,351,VALID,1.11602,
2012-03-03, 03:32:04,VALID,914.46,VALID,0,VALID,85.4814,VALID,0.107441,VALID,18.299,VALID,351,VALID,1.0625,
2012-03-03, 03:33:04,VALID,914.445,VALID,0,VALID,85.9159,VALID,0,VALID,18.2782,VALID,351,VALID,1.26836,
2012-03-03, 03:34:04,VALID,914.436,VALID,0,VALID,85.2984,VALID,0,VALID,18.2601,VALID,351,VALID,1.34766,
2012-03-03, 03:35:04,VALID,914.417,VALID,0,VALID,86.0912,VALID,0,VALID,18.2183,VALID,351,VALID,1.03477,
2012-03-03, 03:36:04,VALID,914.412,VALID,0,VALID,85.8015,VALID,0,VALID,18.2197,VALID,351,VALID,0.853516,
2012-03-03, 03:37:04,VALID,914.407,VALID,0,VALID,85.9464,VALID,0,VALID,18.242,VALID,351,VALID,0.921875,
2012-03-03, 03:38:04,VALID,914.379,VALID,0.2,VALID,86.6782,VALID,0,VALID,18.1807,VALID,351,VALID,0.599609,
2012-03-03, 03:39:04,VALID,914.357,VALID,0,VALID,85.6567,VALID,0,VALID,18.1821,VALID,351,VALID,0.850391,
2012-03-03, 03:40:04,VALID,914.33,VALID,0,VALID,85.6643,VALID,0.107441,VALID,18.1807,VALID,351,VALID,0.705859,
2012-03-03, 03:41:04,VALID,914.315,VALID,0,VALID,86.2056,VALID,0,VALID,18.2016,VALID,351,VALID,0.498828,
2012-03-03, 03:42:04,VALID,914.324,VALID,0,VALID,86.419,VALID,0,VALID,18.1612,VALID,351,VALID,0.930078,
2012-03-03, 03:43:04,VALID,914.327,VALID,0,VALID,85.4737,VALID,0,VALID,18.1431,VALID,348,VALID,1.00469,
2012-03-03, 03:44:04,VALID,914.3,VALID,0,VALID,85.7177,VALID,0,VALID,18.1417,VALID,348,VALID,1.25,
2012-03-03, 03:45:04,VALID,914.307,VALID,0,VALID,85.9083,VALID,0,VALID,18.1417,VALID,348,VALID,1.23906,
2012-03-03, 03:46:04,VALID,914.29,VALID,0,VALID,85.6796,VALID,0,VALID,18.1222,VALID,348,VALID,1.43164,